Regional Weather Roundup
Issued by NWS Sioux Falls, SD

Home | Current Version | Previous Version | Graphics & Text | Print | Product List | Glossary On
Versions: 1 2 3 4 5 6 7 8 9 10 11 12 13 14 15 16 17 18 19 20 21 22 23 24 25 26 27 28 29 30 31 32 33 34 35 36 37 38 39 40 41 42 43 44 45 46 47 48 49 50
000
ASUS43 KFSD 030202
RWRFSD

WEATHER ROUNDUP FOR SE SOUTH DAKOTA/SW MINNESOTA/NW IOWA
NATIONAL WEATHER SERVICE SIOUX FALLS SD
900 PM CDT THU JUL 02 2015

NOTE: "FAIR" INDICATES FEW OR NO CLOUDS BELOW 12,000 FEET WITH NO
SIGNIFICANT WEATHER AND OR OBSTRUCTIONS TO VISIBILITY.


SDZ038>040-050-052>070-030300-
SOUTHEAST SOUTH DAKOTA

CITY           SKY/WX    TMP DP  RH WIND       PRES   REMARKS
BROOKINGS      PTCLDY    66  54  63 S3        30.00S
CHAMBERLAIN    CLEAR     67  64  91 E6        29.98S
HURON          PTCLDY    67  60  78 S5        29.97S
MADISON        FAIR      64  57  77 S5        29.99S
MITCHELL       CLEAR     67  62  84 SE5       29.98S
SIOUX FALLS    PTCLDY    66  59  78 S3        29.98S
WINNER         FAIR      72  61  68 E6        29.98S
YANKTON        MOCLDY    66  61  82 E3        29.97R
$$

MNZ071-072-080-081-089-090-097-098-030300-
SOUTHWEST MINNESOTA

CITY           SKY/WX    TMP DP  RH WIND       PRES   REMARKS
FAIRMONT       PTCLDY    64  48  55 S5        29.99R
JACKSON        MOCLDY    64  55  72 S3        30.00S
LUVERNE        PTCLDY    66  55  68 CALM      30.00R
MARSHALL       PTCLDY    66  52  59 S3        29.97S
MONTEVIDEO     CLEAR     66  52  59 CALM      29.98S
PIPESTONE      PTCLDY    64  55  72 CALM      30.00S
REDWOOD FALLS  PTCLDY    68  55  63 SE5       29.96F
TRACY          PTCLDY    66  56  70 S3        29.99S
WINDOM         MOCLDY    66  54  63 CALM      30.00R
WORTHINGTON    MOCLDY    64  50  59 S3        30.00R
$$

IAZ001>003-012>014-020>022-031-032-NEZ013-014-SDZ071-030300-
NORTHWEST IOWA

CITY           SKY/WX    TMP DP  RH WIND       PRES   REMARKS
DENISON        CLOUDY    63  59  88 E6        29.95F
ESTHERVILLE    MOCLDY    62  56  80 S6        30.00R
SIOUX CITY     CLOUDY    66  58  75 E6        29.97S
SPENCER        CLOUDY    63  54  72 SE5       30.00R
$$

ABBREVIATIONS USED IN REMARKS
   TC - TEMPERATURE IN CELSIUS
  WCI - WIND CHILL INDEX
   HX - HEAT INDEX
  VSB - VISIBILITY



USA.gov is the U.S. government's official web portal to all federal, state and local government web resources and services.